Regional Weather Roundup
Issued by NWS

Home | Current Version | Previous Version | Graphics & Text | Print | Product List | Glossary Off
Versions: 1 2 3 4 5 6 7 8 9 10 11 12 13 14 15 16 17 18 19 20 21 22 23 24 25 26 27 28 29 30 31 32 33 34 35 36 37 38 39 40 41 42 43 44 45 46 47 48 49 50

649
ASUS43 KTOP 290608
RWRKS

WEATHER ROUNDUP FOR KANSAS
NATIONAL WEATHER SERVICE GOODLAND KS
100 AM CDT THU JUN 29 2017

NOTE:  "FAIR" INDICATES FEW OR NO CLOUDS BELOW 12,000 FEET WITH NO
SIGNIFICANT WEATHER AND/OR OBSTRUCTIONS TO VISIBILITY.

KSZ001>006-013>018-027>032-041>047-290700-
NORTHWEST KANSAS

CITY           SKY/WX    TMP DP  RH WIND       PRES   REMARKS
GOODLAND       CLOUDY    68  60  75 NE13      29.80F THUNDER
6HR MIN TEMP:  68; 6HR MAX TEMP:  86; 6HR PCP:  0.01;

HAYS           CLEAR     79  65  62 S15       29.70S
HILL CITY      CLEAR     76  63  64 NE8       29.73S
6HR MIN TEMP:  76; 6HR MAX TEMP:  93;

RUSSELL        CLEAR     80  64  58 S21G29    29.69S
6HR MIN TEMP:  80; 6HR MAX TEMP:  96;

$$

KSZ061>065-074>080-084>089-290700-
SOUTHWEST KANSAS

CITY           SKY/WX    TMP DP  RH WIND       PRES   REMARKS
DODGE CITY     CLEAR     76  64  66 SE14G22   29.73F
6HR MIN TEMP:  76; 6HR MAX TEMP:  95;

ELKHART          N/A     77  50  38 S21         N/A
GARDEN CITY    CLEAR     75  61  61 SE13      29.70F
6HR MIN TEMP:  75; 6HR MAX TEMP:  94;

GREAT BEND     CLEAR     79  66  64 S21       29.71R
LIBERAL        CLEAR     80  59  48 S23G31    29.71F
PRATT          CLEAR     76  64  66 S18G25    29.75S
6HR MIN TEMP:  76; 6HR MAX TEMP:  91;

$$

KSZ066>073-081>083-090>101-290700-
SOUTHEAST KANSAS

CITY           SKY/WX    TMP DP  RH WIND       PRES   REMARKS
CHANUTE        CLEAR     78  67  68 S14       29.82R
6HR MIN TEMP:  78; 6HR MAX TEMP:  87;

COFFEYVILLE    HAZE      77  68  73 S10       29.82F VSB 1/2
6HR MIN TEMP:  77; 6HR MAX TEMP:  87;

HUTCHINSON     CLEAR     80  65  59 S21       29.74S
6HR MIN TEMP:  80; 6HR MAX TEMP:  94;

MEDICINE LODGE   N/A     78  65  63 SE8       29.75R
NEWTON         CLEAR     79  65  62 S22G28    29.78R
PARSONS        CLEAR     77  67  71 S7        29.83F
6HR MIN TEMP:  77; 6HR MAX TEMP:  87;

WICHITA INTL   PTCLDY    79  66  64 S18       29.76S
6HR MIN TEMP:  79; 6HR MAX TEMP:  91;

WICHITA JABRA  CLEAR     78  66  66 S16G24    29.77R
6HR MIN TEMP:  78; 6HR MAX TEMP:  88;

WICHITA MCCONL CLEAR     79  65  62 S20       29.78R
WINFIELD       CLEAR     77  66  68 S16       29.79F
6HR MIN TEMP:  77; 6HR MAX TEMP:  88;

$$

KSZ007>012-019>026-033>040-048>060-102>105-290700-
NORTHEAST KANSAS

CITY           SKY/WX    TMP DP  RH WIND       PRES   REMARKS
CONCORDIA      TSTM      70  64  81 E10       29.77F
6HR MIN TEMP:  69; 6HR MAX TEMP:  91; 6HR PCP:  0.20;

EMPORIA        CLEAR     77  67  71 S16       29.78R
6HR MIN TEMP:  77; 6HR MAX TEMP:  87;

LAWRENCE       PTCLDY    79  69  71 S18G25    29.76S
6HR MIN TEMP:  79; 6HR MAX TEMP:  88;

MANHATTAN      CLOUDY    83  67  58 NW7       29.80R
6HR MIN TEMP:  82; 6HR MAX TEMP:  92;

MARYSVILLE     LGT RAIN  75  70  83 SW16      29.75S
OLATHE IND     CLEAR     78  67  68 S15G24    29.80R
6HR MIN TEMP:  78; 6HR MAX TEMP:  86;

OLATHE EXE     CLEAR     78  68  71 S16G24    29.80R
6HR MIN TEMP:  78; 6HR MAX TEMP:  84;

SALINA         CLEAR     84  65  52 S17G31    29.71R
6HR MIN TEMP:  83; 6HR MAX TEMP:  96;

TOPEKA BILLARD MOCLDY    81  69  67 S16G30    29.75R
6HR MIN TEMP:  81; 6HR MAX TEMP:  88;

TOPEKA FORBES  PTCLDY    81  68  64 S15G23    29.77R
6HR MIN TEMP:  81; 6HR MAX TEMP:  89;

$$




USA.gov is the U.S. government's official web portal to all federal, state and local government web resources and services.